• In Denmark
  • List of Countries
  • For 7 days
  • Water Temperature
  • Satellite Maps
  • Weather Map
  • Weather Widgets
  • user-avatar
    Login

    Hourly Weather Tuzla

    Today, 25 May, Friday

    Time Temperature Precipitation Wind Pressure Humidity
    00:00 +15°C° 0 mm 1 mps 721 mmHg 91%
    01:00 +14°C° 0 mm 0 mps 721 mmHg 92%
    02:00 +14°C° 0.1 mm 1 mps 721 mmHg 92%
    03:00 +14°C° 0.1 mm 1 mps 721 mmHg 92%
    04:00 +14°C° 0.1 mm 1 mps 721 mmHg 92%
    05:00 +16°C° 0.1 mm 1 mps 721 mmHg 88%
    06:00 +17°C° 0.1 mm 0 mps 721 mmHg 84%
    07:00 +19°C° 0 mm 0 mps 722 mmHg 79%
    08:00 +22°C° 0.3 mm 1 mps 722 mmHg 72%
    09:00 +24°C° 0.3 mm 1 mps 722 mmHg 66%
    10:00 +25°C° 0.3 mm 1 mps 722 mmHg 60%
    11:00 +25°C° 0.3 mm 1 mps 722 mmHg 59%
    12:00 +26°C° 0.3 mm 2 mps 722 mmHg 59%
    13:00 +26°C° 0.3 mm 2 mps 722 mmHg 58%
    14:00 +26°C° 0.5 mm 2 mps 722 mmHg 61%
    15:00 +25°C° 0.5 mm 2 mps 722 mmHg 64%
    16:00 +25°C° 0.5 mm 2 mps 721 mmHg 67%
    17:00 +23°C° 0.4 mm 1 mps 721 mmHg 73%
    18:00 +22°C° 0.4 mm 1 mps 722 mmHg 78%
    19:00 +20°C° 0.4 mm 1 mps 722 mmHg 84%
    20:00 +20°C° 0.2 mm 1 mps 722 mmHg 85%
    21:00 +19°C° 0.2 mm 1 mps 722 mmHg 87%
    22:00 +18°C° 0.2 mm 1 mps 722 mmHg 88%
    23:00 +18°C° 0 mm 1 mps 723 mmHg 89%

    Tomorrow, 26 May, Saturday

    Time Temperature Precipitation Wind Pressure Humidity
    00:00 +15°C° 0 mm 0 mps 723 mmHg 89%
    01:00 +15°C° 0 mm 0 mps 723 mmHg 90%
    02:00 +14°C° 0 mm 0 mps 723 mmHg 91%
    03:00 +14°C° 0 mm 0 mps 723 mmHg 92%
    04:00 +14°C° 0 mm 0 mps 723 mmHg 92%
    05:00 +15°C° 0 mm 0 mps 723 mmHg 89%
    06:00 +17°C° 0 mm 0 mps 724 mmHg 86%
    07:00 +21°C° 0 mm 1 mps 724 mmHg 82%
    08:00 +22°C° 0.1 mm 1 mps 725 mmHg 74%
    09:00 +24°C° 0.1 mm 1 mps 725 mmHg 65%
    10:00 +26°C° 0.1 mm 1 mps 725 mmHg 57%
    11:00 +27°C° 0.1 mm 2 mps 725 mmHg 54%
    12:00 +27°C° 0.1 mm 2 mps 725 mmHg 52%
    13:00 +28°C° 0.1 mm 2 mps 725 mmHg 50%
    14:00 +27°C° 0.5 mm 2 mps 725 mmHg 55%
    15:00 +27°C° 0.5 mm 2 mps 724 mmHg 60%
    16:00 +26°C° 0.5 mm 2 mps 724 mmHg 65%
    17:00 +24°C° 0.5 mm 2 mps 724 mmHg 71%
    18:00 +23°C° 0.5 mm 1 mps 724 mmHg 77%
    19:00 +21°C° 0.5 mm 1 mps 724 mmHg 83%
    20:00 +20°C° 0.3 mm 1 mps 724 mmHg 85%
    21:00 +19°C° 0.3 mm 1 mps 724 mmHg 87%
    22:00 +18°C° 0.3 mm 1 mps 724 mmHg 88%
    23:00 +18°C° 0 mm 1 mps 724 mmHg 89%

    Day after tomorrow, 27 May, Sunday

    Time Temperature Precipitation Wind Pressure Humidity
    00:00 +16°C° 0 mm 1 mps 724 mmHg 90%
    01:00 +16°C° 0 mm 1 mps 724 mmHg 90%
    02:00 +16°C° 0 mm 1 mps 724 mmHg 91%
    03:00 +15°C° 0 mm 1 mps 724 mmHg 91%
    04:00 +15°C° 0 mm 1 mps 724 mmHg 91%
    05:00 +16°C° 0 mm 0 mps 724 mmHg 86%
    06:00 +18°C° 0 mm 0 mps 724 mmHg 81%
    07:00 +20°C° 0 mm 0 mps 724 mmHg 76%
    08:00 +23°C° 0 mm 1 mps 724 mmHg 68%
    09:00 +25°C° 0 mm 1 mps 725 mmHg 61%
    10:00 +27°C° 0 mm 2 mps 725 mmHg 53%
    11:00 +28°C° 0 mm 2 mps 725 mmHg 50%
    12:00 +29°C° 0 mm 2 mps 725 mmHg 48%
    13:00 +29°C° 0 mm 2 mps 724 mmHg 45%
    14:00 +29°C° 0.2 mm 2 mps 724 mmHg 51%
    15:00 +28°C° 0.2 mm 2 mps 724 mmHg 56%
    16:00 +27°C° 0.2 mm 3 mps 723 mmHg 61%
    17:00 +25°C° 0.4 mm 2 mps 723 mmHg 69%
    18:00 +24°C° 0.4 mm 2 mps 723 mmHg 77%
    19:00 +22°C° 0.4 mm 1 mps 723 mmHg 84%
    20:00 +21°C° 0 mm 1 mps 723 mmHg 87%
    21:00 +20°C° 0 mm 1 mps 724 mmHg 89%
    22:00 +19°C° 0 mm 1 mps 724 mmHg 91%
    23:00 +18°C° 0 mm 1 mps 724 mmHg 92%

    28 May, Monday

    Time Temperature Precipitation Wind Pressure Humidity
    00:00 +18°C° 0 mm 1 mps 723 mmHg 92%
    01:00 +16°C° 0 mm 1 mps 723 mmHg 92%
    02:00 +16°C° 0 mm 1 mps 723 mmHg 92%
    03:00 +16°C° 0 mm 1 mps 723 mmHg 92%
    04:00 +15°C° 0 mm 1 mps 723 mmHg 92%
    05:00 +18°C° 0 mm 1 mps 724 mmHg 87%
    06:00 +18°C° 0 mm 0 mps 724 mmHg 83%
    07:00 +20°C° 0 mm 0 mps 724 mmHg 78%
    08:00 +24°C° 0 mm 1 mps 724 mmHg 69%
    09:00 +26°C° 0 mm 1 mps 724 mmHg 61%
    10:00 +27°C° 0 mm 2 mps 725 mmHg 52%
    11:00 +28°C° 0 mm 2 mps 724 mmHg 50%
    12:00 +29°C° 0 mm 2 mps 724 mmHg 48%
    13:00 +29°C° 0 mm 3 mps 724 mmHg 46%
    14:00 +28°C° 0.2 mm 3 mps 724 mmHg 52%
    15:00 +28°C° 0.2 mm 3 mps 724 mmHg 58%
    16:00 +27°C° 0.2 mm 3 mps 723 mmHg 63%
    17:00 +25°C° 0.2 mm 3 mps 723 mmHg 70%
    18:00 +23°C° 0.2 mm 2 mps 723 mmHg 77%
    19:00 +21°C° 0.2 mm 1 mps 723 mmHg 84%
    20:00 +20°C° 0 mm 1 mps 723 mmHg 87%
    21:00 +19°C° 0 mm 1 mps 723 mmHg 89%
    22:00 +18°C° 0 mm 1 mps 723 mmHg 92%
    23:00 +18°C° 0 mm 1 mps 723 mmHg 92%

    29 May, Tuesday

    Time Temperature Precipitation Wind Pressure Humidity
    00:00 +16°C° 0 mm 1 mps 723 mmHg 92%
    01:00 +16°C° 0 mm 1 mps 723 mmHg 92%
    02:00 +16°C° 0 mm 1 mps 723 mmHg 92%
    03:00 +15°C° 0 mm 1 mps 723 mmHg 93%
    04:00 +15°C° 0 mm 1 mps 723 mmHg 93%
    05:00 +18°C° 0 mm 1 mps 723 mmHg 87%
    06:00 +19°C° 0 mm 1 mps 723 mmHg 82%
    07:00 +21°C° 0 mm 1 mps 723 mmHg 77%
    08:00 +23°C° 0 mm 1 mps 723 mmHg 68%
    09:00 +25°C° 0 mm 2 mps 723 mmHg 60%
    10:00 +27°C° 0 mm 2 mps 724 mmHg 51%
    11:00 +27°C° 0 mm 3 mps 723 mmHg 49%
    12:00 +28°C° 0 mm 3 mps 723 mmHg 47%
    13:00 +28°C° 0 mm 3 mps 723 mmHg 45%
    14:00 +28°C° 0 mm 3 mps 723 mmHg 48%
    15:00 +28°C° 0 mm 3 mps 723 mmHg 50%
    16:00 +27°C° 0 mm 3 mps 722 mmHg 53%
    17:00 +25°C° 0.2 mm 3 mps 722 mmHg 62%
    18:00 +23°C° 0.2 mm 2 mps 722 mmHg 72%
    19:00 +20°C° 0.2 mm 2 mps 722 mmHg 81%
    20:00 +20°C° 0 mm 1 mps 722 mmHg 84%
    21:00 +18°C° 0 mm 1 mps 721 mmHg 87%
    22:00 +16°C° 0 mm 1 mps 721 mmHg 90%
    23:00 +16°C° 0 mm 1 mps 721 mmHg 90%

    30 May, Wednesday

    Time Temperature Precipitation Wind Pressure Humidity
    00:00 +16°C° 0 mm 1 mps 721 mmHg 91%
    01:00 +15°C° 0 mm 1 mps 721 mmHg 91%
    02:00 +15°C° 0 mm 1 mps 721 mmHg 91%
    03:00 +15°C° 0 mm 1 mps 721 mmHg 92%
    04:00 +14°C° 0 mm 1 mps 720 mmHg 92%
    05:00 +16°C° 0 mm 1 mps 721 mmHg 86%
    06:00 +20°C° 0 mm 1 mps 721 mmHg 80%
    07:00 +20°C° 0 mm 0 mps 721 mmHg 74%
    08:00 +24°C° 0 mm 1 mps 721 mmHg 67%
    09:00 +26°C° 0 mm 1 mps 721 mmHg 59%
    10:00 +28°C° 0 mm 1 mps 721 mmHg 52%
    11:00 +28°C° 0 mm 2 mps 721 mmHg 49%
    12:00 +29°C° 0 mm 2 mps 721 mmHg 47%
    13:00 +29°C° 0 mm 2 mps 721 mmHg 44%
    14:00 +29°C° 0 mm 2 mps 720 mmHg 47%
    15:00 +29°C° 0 mm 2 mps 720 mmHg 49%
    16:00 +28°C° 0 mm 2 mps 720 mmHg 51%
    17:00 +26°C° 0.5 mm 2 mps 720 mmHg 61%
    18:00 +24°C° 0.5 mm 1 mps 720 mmHg 72%
    19:00 +22°C° 0.5 mm 1 mps 719 mmHg 82%
    20:00 +21°C° 0.1 mm 1 mps 719 mmHg 84%
    21:00 +20°C° 0.1 mm 1 mps 719 mmHg 86%
    22:00 +19°C° 0.1 mm 1 mps 719 mmHg 88%
    23:00 +18°C° 0 mm 1 mps 719 mmHg 88%
    Show more